Location: Laterina
(43.5167°N, 11.7167°E)
Time: 08:15:19
(UTC+00:00)

Cosmos 2026 Rocket - Pass Details

Date: 19 January 2021
Orbit: 940 x 1000 km, 82.9° (Epoch: 08 March)

Event Time Altitude Azimuth Distance (km) Brightness Sun altitude
Rises 05:36:50 0° 352° (N) 3,702 6.8 -11.5°
Reaches altitude 10° 05:39:21 10° 354° (N) 2,757 6.1 -11.1°
Maximum altitude 05:45:43 82° 82° (E) 1,011 4.2 -10.0°
Drops below altitude 10° 05:52:05 10° 170° (S) 2,762 6.8 -8.9°
Sets 05:54:37 0° 172° (S) 3,708 7.5 -8.5°
